WJA50 CYYT-EGKK

Flight info

Callsign WJA50
Flight time 4h 38m
Altitude 35000
Route YYT DCT JOOPY NATW 49N050W/M079F360 NATW XETBO/N0452F370 DCT LEDGO DCT FONZU DCT ELRIP DCT OTMET
Aircraft B38M/M-SDE1FGHILORVWXY/HB1

Departure

Time 2026-05-05 16:18
Airport St. John's International Airport (CYYT)

Arrival

Time 2026-05-05 20:57
Airport London Gatwick Airport (EGKK)
Time Latitude Longitude Altitude Speed Heading
2026-05-05 15:52 47.61409 -52.74465 451 ft 0 kts 173°
2026-05-05 16:06 47.61417 -52.74466 451 ft 3 kts 172°
2026-05-05 16:06 47.61437 -52.74471 451 ft 3 kts 170°
2026-05-05 16:06 47.61456 -52.74477 451 ft 3 kts 163°
2026-05-05 16:07 47.61475 -52.74488 451 ft 3 kts 145°
2026-05-05 16:07 47.61485 -52.74504 451 ft 3 kts 95°
2026-05-05 16:07 47.61485 -52.74514 451 ft 0 kts 66°
2026-05-05 16:10 47.61489 -52.74499 451 ft 8 kts 66°
2026-05-05 16:10 47.61484 -52.74361 451 ft 18 kts 117°
2026-05-05 16:10 47.61426 -52.74183 451 ft 18 kts 113°
2026-05-05 16:10 47.61376 -52.74020 451 ft 17 kts 119°
2026-05-05 16:11 47.61288 -52.73946 440 ft 13 kts 141°
2026-05-05 16:11 47.61195 -52.73685 431 ft 10 kts 120°
2026-05-05 16:12 47.61153 -52.73573 423 ft 11 kts 118°
2026-05-05 16:12 47.61123 -52.73484 423 ft 9 kts 110°
2026-05-05 16:13 47.61291 -52.73522 423 ft 13 kts 319°
2026-05-05 16:13 47.61368 -52.73619 423 ft 16 kts 319°
2026-05-05 16:13 47.61452 -52.73730 428 ft 16 kts 319°
2026-05-05 16:14 47.61654 -52.73860 429 ft 15 kts 357°
2026-05-05 16:14 47.61823 -52.73873 446 ft 17 kts 356°
2026-05-05 16:15 47.62149 -52.73909 447 ft 26 kts 355°
2026-05-05 16:15 47.62467 -52.73937 431 ft 17 kts 358°
2026-05-05 16:16 47.62538 -52.73750 423 ft 10 kts 191°
2026-05-05 16:16 47.62525 -52.73786 434 ft 0 kts 267°
2026-05-05 16:17 47.62525 -52.73809 432 ft 13 kts 268°
2026-05-05 16:17 47.62501 -52.74322 450 ft 85 kts 266°
2026-05-05 16:18 47.62380 -52.77119 977 ft 163 kts 266°
2026-05-05 16:18 47.62322 -52.78786 2000 ft 156 kts 263°
2026-05-05 16:18 47.62188 -52.82253 3195 ft 192 kts 265°
2026-05-05 16:19 47.62381 -52.84261 4023 ft 200 kts 292°
2026-05-05 16:19 47.63274 -52.85931 5009 ft 218 kts 308°
2026-05-05 16:19 47.66495 -52.87346 6458 ft 285 kts
2026-05-05 16:20 47.70004 -52.83964 8212 ft 310 kts 29°
2026-05-05 16:20 47.73529 -52.80189 9957 ft 315 kts 28°
2026-05-05 16:21 47.77284 -52.76333 10842 ft 346 kts 28°
2026-05-05 16:22 47.83580 -52.69963 12551 ft 374 kts 29°
2026-05-05 16:22 47.84139 -52.69388 12602 ft 0 kts 29°
2026-05-05 16:23 47.89333 -52.68693 13985 ft 381 kts 33°
2026-05-05 16:23 47.91456 -52.66288 14540 ft 387 kts 32°
2026-05-05 16:23 47.95787 -52.61437 15783 ft 392 kts 32°
2026-05-05 16:24 47.97978 -52.58986 16390 ft 395 kts 32°
2026-05-05 16:24 48.00189 -52.56510 16986 ft 398 kts 32°
2026-05-05 16:24 48.04652 -52.51503 18168 ft 404 kts 32°
2026-05-05 16:25 48.06915 -52.48962 18625 ft 409 kts 32°
2026-05-05 16:25 48.11486 -52.43818 19623 ft 414 kts 32°
2026-05-05 16:25 48.13792 -52.41219 20111 ft 416 kts 32°
2026-05-05 16:26 48.18444 -52.35964 21069 ft 421 kts 32°
2026-05-05 16:26 48.23154 -52.30633 21999 ft 426 kts 32°
2026-05-05 16:27 48.25529 -52.27939 22461 ft 430 kts 32°
2026-05-05 16:27 48.27885 -52.25265 22907 ft 432 kts 32°
2026-05-05 16:27 48.30289 -52.22532 23370 ft 434 kts 31°
2026-05-05 16:27 48.32702 -52.19786 23759 ft 437 kts 31°
2026-05-05 16:28 48.35125 -52.17025 24154 ft 438 kts 31°
2026-05-05 16:28 48.37560 -52.14247 24536 ft 439 kts 31°
2026-05-05 16:28 48.39996 -52.11463 24917 ft 441 kts 31°
2026-05-05 16:28 48.42440 -52.08668 25310 ft 442 kts 31°
2026-05-05 16:29 48.44896 -52.05857 25659 ft 445 kts 31°
2026-05-05 16:29 48.47359 -52.03022 26007 ft 447 kts 33°
2026-05-05 16:29 48.49542 -51.99627 26380 ft 458 kts 50°
2026-05-05 16:29 48.51089 -51.95391 26752 ft 466 kts 64°
2026-05-05 16:30 48.52325 -51.90857 27044 ft 468 kts 64°
2026-05-05 16:30 48.53547 -51.86298 27374 ft 470 kts 65°
2026-05-05 16:30 48.54758 -51.81693 27698 ft 472 kts 65°
2026-05-05 16:30 48.55957 -51.77077 28014 ft 474 kts 65°
2026-05-05 16:31 48.57160 -51.72426 28306 ft 476 kts 65°
2026-05-05 16:31 48.58363 -51.67757 28618 ft 478 kts 66°
2026-05-05 16:31 48.59567 -51.63079 28952 ft 479 kts 66°
2026-05-05 16:31 48.60776 -51.58372 29227 ft 481 kts 66°
2026-05-05 16:32 48.61984 -51.53656 29518 ft 483 kts 66°
2026-05-05 16:32 48.63197 -51.48913 29793 ft 484 kts 66°
2026-05-05 16:32 48.64411 -51.44155 30059 ft 486 kts 66°
2026-05-05 16:32 48.65627 -51.39377 30266 ft 488 kts 66°
2026-05-05 16:33 48.66846 -51.34582 30472 ft 490 kts 66°
2026-05-05 16:33 48.68070 -51.29753 30685 ft 492 kts 66°
2026-05-05 16:33 48.69296 -51.24909 30875 ft 494 kts 67°
2026-05-05 16:33 48.70526 -51.20037 31080 ft 496 kts 67°
2026-05-05 16:34 48.71757 -51.15148 31273 ft 498 kts 67°
2026-05-05 16:34 48.72992 -51.10237 31498 ft 499 kts 67°
2026-05-05 16:34 48.74225 -51.05320 31760 ft 499 kts 67°
2026-05-05 16:34 48.75456 -51.00404 32017 ft 499 kts 68°
2026-05-05 16:35 48.76685 -50.95480 32279 ft 500 kts 68°
2026-05-05 16:35 48.77913 -50.90553 32547 ft 500 kts 68°
2026-05-05 16:35 48.79140 -50.85617 32802 ft 500 kts 68°
2026-05-05 16:35 48.80363 -50.80689 33047 ft 500 kts 69°
2026-05-05 16:36 48.81570 -50.75815 33277 ft 500 kts 69°
2026-05-05 16:36 48.82791 -50.70869 33459 ft 502 kts 69°
2026-05-05 16:36 48.84014 -50.65908 33699 ft 502 kts 69°
2026-05-05 16:36 48.85233 -50.60951 33924 ft 502 kts 69°
2026-05-05 16:37 48.86452 -50.55984 34124 ft 502 kts 70°
2026-05-05 16:37 48.87668 -50.51017 34317 ft 502 kts 70°
2026-05-05 16:37 48.88883 -50.46042 34488 ft 502 kts 70°
2026-05-05 16:37 48.90096 -50.41067 34669 ft 502 kts 70°
2026-05-05 16:38 48.91309 -50.36079 34839 ft 502 kts 70°
2026-05-05 16:38 48.92518 -50.31094 34943 ft 503 kts 70°
2026-05-05 16:38 48.94930 -50.21117 34941 ft 502 kts 70°
2026-05-05 16:39 48.97331 -50.11155 34950 ft 502 kts 70°
2026-05-05 16:39 48.99660 -50.01425 34949 ft 502 kts 72°
2026-05-05 16:40 49.01290 -49.91095 34957 ft 503 kts 78°
2026-05-05 16:40 49.02800 -49.80690 34944 ft 504 kts 78°
2026-05-05 16:41 49.04304 -49.70215 34959 ft 507 kts 78°
2026-05-05 16:41 49.05801 -49.59714 34957 ft 506 kts 78°
2026-05-05 16:42 49.07287 -49.49217 34975 ft 507 kts 78°
2026-05-05 16:42 49.08766 -49.38702 34967 ft 507 kts 78°
2026-05-05 16:43 49.10233 -49.28187 34966 ft 507 kts 78°
2026-05-05 16:43 49.11693 -49.17659 34974 ft 507 kts 79°
2026-05-05 16:44 49.13142 -49.07134 34950 ft 507 kts 79°
2026-05-05 16:44 49.14582 -48.96585 34977 ft 507 kts 79°
2026-05-05 16:45 49.16012 -48.86044 34982 ft 507 kts 79°
2026-05-05 16:45 49.17432 -48.75501 34982 ft 507 kts 79°
2026-05-05 16:46 49.18833 -48.65017 34982 ft 507 kts 79°
2026-05-05 16:46 49.20235 -48.54457 34991 ft 507 kts 79°
2026-05-05 16:47 49.21623 -48.43911 34989 ft 505 kts 79°
2026-05-05 16:47 49.23000 -48.33377 34989 ft 505 kts 79°
2026-05-05 16:48 49.24368 -48.22834 34997 ft 505 kts 80°
2026-05-05 16:48 49.25725 -48.12293 34997 ft 505 kts 80°
2026-05-05 16:49 49.27074 -48.01740 35003 ft 505 kts 80°
2026-05-05 16:49 49.28409 -47.91207 34996 ft 503 kts 81°
2026-05-05 16:50 49.29734 -47.80680 35005 ft 503 kts 81°
2026-05-05 16:50 49.31049 -47.70148 35003 ft 503 kts 81°
2026-05-05 16:51 49.32354 -47.59612 35012 ft 503 kts 81°
2026-05-05 16:51 49.33649 -47.49071 35007 ft 504 kts 82°
2026-05-05 16:52 49.34939 -47.38494 35017 ft 505 kts 82°
2026-05-05 16:52 49.36218 -47.27912 35016 ft 505 kts 82°
2026-05-05 16:53 49.37488 -47.17328 35018 ft 505 kts 82°
2026-05-05 16:53 49.38748 -47.06737 35025 ft 505 kts 82°
2026-05-05 16:54 49.39999 -46.96137 35030 ft 505 kts 82°
2026-05-05 16:54 49.41241 -46.85528 35024 ft 505 kts 82°
2026-05-05 16:55 49.42473 -46.74914 35005 ft 505 kts 83°
2026-05-05 16:55 49.43691 -46.64335 35038 ft 508 kts 83°
2026-05-05 16:56 49.44910 -46.53648 35032 ft 507 kts 83°
2026-05-05 16:56 49.46119 -46.42960 35039 ft 507 kts 83°
2026-05-05 16:57 49.47326 -46.32206 35043 ft 507 kts 83°
2026-05-05 16:57 49.48508 -46.21578 35043 ft 507 kts 83°
2026-05-05 16:58 49.49686 -46.10885 35050 ft 507 kts 83°
2026-05-05 16:58 49.50855 -46.00186 35050 ft 507 kts 83°
2026-05-05 16:59 49.52014 -45.89476 35046 ft 507 kts 84°
2026-05-05 16:59 49.53163 -45.78771 35057 ft 506 kts 84°
2026-05-05 17:00 49.54300 -45.68081 35065 ft 506 kts 84°
2026-05-05 17:00 49.55245 -45.59112 35066 ft 506 kts 84°
2026-05-05 17:01 49.56357 -45.48481 35074 ft 506 kts 84°
2026-05-05 17:01 49.57466 -45.37773 35077 ft 506 kts 84°
2026-05-05 17:02 49.58565 -45.27060 35073 ft 506 kts 84°
2026-05-05 17:02 49.59654 -45.16346 35080 ft 506 kts 84°
2026-05-05 17:03 49.60737 -45.05591 35087 ft 510 kts 84°
2026-05-05 17:03 49.61813 -44.94793 35086 ft 509 kts 84°
2026-05-05 17:04 49.62878 -44.84004 35086 ft 509 kts 84°
2026-05-05 17:04 49.63932 -44.73224 35089 ft 508 kts 84°
2026-05-05 17:05 49.64975 -44.62444 35089 ft 508 kts 84°
2026-05-05 17:05 49.66009 -44.51655 35099 ft 508 kts 84°
2026-05-05 17:06 49.67032 -44.40866 35100 ft 508 kts 84°
2026-05-05 17:06 49.68045 -44.30074 35096 ft 508 kts 85°
2026-05-05 17:07 49.69047 -44.19287 35111 ft 507 kts 85°
2026-05-05 17:07 49.70038 -44.08507 35111 ft 507 kts 85°
2026-05-05 17:08 49.71020 -43.97716 35114 ft 507 kts 85°
2026-05-05 17:08 49.71991 -43.86924 35122 ft 507 kts 85°
2026-05-05 17:09 49.72946 -43.76205 35122 ft 506 kts 85°
2026-05-05 17:09 49.73896 -43.65424 35125 ft 506 kts 85°
2026-05-05 17:10 49.74835 -43.54637 35112 ft 507 kts 85°
2026-05-05 17:10 49.75768 -43.43816 35138 ft 509 kts 86°
2026-05-05 17:11 49.76691 -43.32979 35139 ft 508 kts 86°
2026-05-05 17:11 49.77603 -43.22149 35140 ft 507 kts 86°
2026-05-05 17:12 49.78503 -43.11345 35141 ft 506 kts 86°
2026-05-05 17:12 49.79392 -43.00538 35144 ft 506 kts 86°
2026-05-05 17:13 49.80272 -42.89727 35154 ft 506 kts 86°
2026-05-05 17:13 49.81141 -42.78918 35153 ft 506 kts 86°
2026-05-05 17:14 49.81999 -42.68106 35153 ft 505 kts 87°
2026-05-05 17:14 49.82846 -42.57314 35153 ft 504 kts 87°
2026-05-05 17:15 49.83683 -42.46522 35160 ft 505 kts 87°
2026-05-05 17:15 49.84509 -42.35730 35159 ft 505 kts 87°
2026-05-05 17:16 49.85326 -42.24930 35167 ft 505 kts 87°
2026-05-05 17:16 49.86126 -42.14210 35168 ft 503 kts 87°
2026-05-05 17:17 49.86920 -42.03436 35170 ft 503 kts 87°
2026-05-05 17:17 49.87705 -41.92650 35149 ft 504 kts 88°
2026-05-05 17:18 49.88482 -41.81822 35181 ft 506 kts 88°
2026-05-05 17:18 49.89250 -41.70985 35179 ft 505 kts 88°
2026-05-05 17:19 49.90007 -41.60154 35178 ft 504 kts 88°
2026-05-05 17:19 49.90752 -41.49347 35181 ft 504 kts 88°
2026-05-05 17:20 49.91488 -41.38532 35184 ft 504 kts 88°
2026-05-05 17:20 49.92213 -41.27716 35187 ft 504 kts 88°
2026-05-05 17:21 49.92928 -41.16903 35189 ft 504 kts 88°
2026-05-05 17:22 49.93983 -41.00643 35196 ft 506 kts 88°
2026-05-05 17:22 49.94678 -40.89784 35192 ft 505 kts 88°
2026-05-05 17:23 49.95364 -40.78932 35194 ft 505 kts 88°
2026-05-05 17:23 49.96039 -40.68074 35193 ft 505 kts 88°
2026-05-05 17:24 49.96705 -40.57223 35191 ft 505 kts 89°
2026-05-05 17:24 49.97360 -40.46388 35202 ft 503 kts 89°
2026-05-05 17:25 49.98005 -40.35556 35196 ft 503 kts 89°
2026-05-05 17:25 49.98642 -40.24705 35200 ft 506 kts 89°
2026-05-05 17:26 49.99271 -40.13819 35199 ft 506 kts 89°
2026-05-05 17:26 49.99890 -40.02935 35202 ft 505 kts 89°
2026-05-05 17:27 50.01152 -39.92223 35227 ft 509 kts 81°
2026-05-05 17:27 50.02686 -39.81468 35203 ft 509 kts 81°
2026-05-05 17:28 50.04228 -39.70710 35204 ft 510 kts 81°
2026-05-05 17:28 50.05762 -39.59946 35205 ft 510 kts 81°
2026-05-05 17:29 50.07283 -39.49194 35203 ft 508 kts 81°
2026-05-05 17:29 50.08792 -39.38445 35209 ft 508 kts 81°
2026-05-05 17:30 50.10293 -39.27678 35204 ft 511 kts 81°
2026-05-05 17:30 50.11794 -39.16837 35212 ft 512 kts 81°
2026-05-05 17:31 50.13283 -39.05996 35207 ft 511 kts 81°
2026-05-05 17:31 50.14759 -38.95172 35208 ft 511 kts 81°
2026-05-05 17:32 50.16226 -38.84336 35210 ft 511 kts 81°
2026-05-05 17:32 50.17682 -38.73498 35209 ft 510 kts 81°
2026-05-05 17:33 50.19127 -38.62659 35218 ft 510 kts 81°
2026-05-05 17:33 50.20562 -38.51816 35211 ft 510 kts 81°
2026-05-05 17:34 50.21984 -38.40987 35211 ft 509 kts 82°
2026-05-05 17:34 50.23396 -38.30144 35209 ft 509 kts 82°
2026-05-05 17:35 50.24800 -38.19291 35190 ft 511 kts 82°
2026-05-05 17:35 50.26202 -38.08365 35206 ft 513 kts 82°
2026-05-05 17:36 50.27589 -37.97458 35211 ft 511 kts 82°
2026-05-05 17:36 50.28966 -37.86557 35211 ft 511 kts 82°
2026-05-05 17:37 50.30333 -37.75641 35210 ft 511 kts 82°
2026-05-05 17:37 50.31689 -37.64731 35211 ft 511 kts 82°
2026-05-05 17:38 50.33034 -37.53817 35209 ft 510 kts 82°
2026-05-05 17:38 50.34365 -37.42925 35210 ft 510 kts 82°
2026-05-05 17:39 50.35688 -37.32017 35213 ft 510 kts 82°
2026-05-05 17:39 50.36999 -37.21116 35210 ft 510 kts 82°
2026-05-05 17:40 50.38301 -37.10199 35170 ft 509 kts 82°
2026-05-05 17:40 50.39587 -36.99315 35207 ft 513 kts 82°
2026-05-05 17:41 50.40875 -36.88329 35207 ft 512 kts 82°
2026-05-05 17:41 50.42161 -36.77268 35209 ft 512 kts 82°
2026-05-05 17:42 50.43427 -36.66279 35207 ft 512 kts 82°
2026-05-05 17:42 50.44670 -36.55393 35203 ft 509 kts 82°
2026-05-05 17:43 50.45907 -36.44466 35210 ft 509 kts 82°
2026-05-05 17:43 50.47134 -36.33534 35207 ft 509 kts 82°
2026-05-05 17:44 50.48147 -36.24440 35197 ft 509 kts 82°
2026-05-05 17:44 50.49354 -36.13505 35195 ft 508 kts 82°
2026-05-05 17:45 50.50545 -36.02622 35198 ft 504 kts 82°
2026-05-05 17:45 50.51725 -35.91735 35178 ft 508 kts 82°
2026-05-05 17:46 50.52906 -35.80750 35194 ft 510 kts 82°
2026-05-05 17:46 50.54076 -35.69755 35194 ft 510 kts 82°
2026-05-05 17:47 50.55232 -35.58795 35194 ft 506 kts 82°
2026-05-05 17:47 50.56369 -35.47907 35198 ft 505 kts 82°
2026-05-05 17:48 50.57497 -35.37007 35186 ft 505 kts 82°
2026-05-05 17:48 50.58614 -35.26108 35183 ft 505 kts 82°
2026-05-05 17:49 50.59722 -35.15198 35184 ft 505 kts 82°
2026-05-05 17:49 50.60818 -35.04291 35182 ft 505 kts 82°
2026-05-05 17:50 50.61906 -34.93372 35183 ft 505 kts 83°
2026-05-05 17:50 50.62983 -34.82447 35181 ft 505 kts 83°
2026-05-05 17:51 50.64049 -34.71523 35181 ft 505 kts 83°
2026-05-05 17:51 50.65103 -34.60610 35176 ft 502 kts 83°
2026-05-05 17:52 50.66144 -34.49733 35178 ft 502 kts 83°
2026-05-05 17:52 50.67168 -34.38912 35173 ft 502 kts 83°
2026-05-05 17:53 50.68188 -34.28025 35173 ft 502 kts 83°
2026-05-05 17:53 50.69198 -34.17132 35162 ft 502 kts 83°
2026-05-05 17:54 50.70194 -34.06278 35169 ft 498 kts 83°
2026-05-05 17:54 50.71177 -33.95460 35174 ft 498 kts 83°
2026-05-05 17:55 50.72150 -33.84624 35178 ft 498 kts 83°
2026-05-05 17:55 50.73112 -33.73795 35178 ft 499 kts 83°
2026-05-05 17:56 50.74067 -33.62934 35177 ft 500 kts 83°
2026-05-05 17:56 50.75012 -33.52072 35173 ft 498 kts 83°
2026-05-05 17:57 50.75944 -33.41230 35183 ft 499 kts 83°
2026-05-05 17:57 50.76867 -33.30368 35183 ft 499 kts 83°
2026-05-05 17:58 50.77780 -33.19513 35186 ft 499 kts 83°
2026-05-05 17:58 50.78679 -33.08693 35178 ft 494 kts 83°
2026-05-05 17:59 50.79561 -32.97950 35189 ft 493 kts 83°
2026-05-05 17:59 50.80434 -32.87204 35196 ft 493 kts 83°
2026-05-05 18:00 50.81297 -32.76444 35193 ft 493 kts 83°
2026-05-05 18:00 50.82150 -32.65682 35207 ft 493 kts 84°
2026-05-05 18:01 50.82984 -32.55046 35188 ft 485 kts 83°
2026-05-05 18:01 50.83808 -32.44400 35207 ft 490 kts 83°
2026-05-05 18:02 50.84626 -32.33704 35205 ft 489 kts 83°
2026-05-05 18:02 50.85434 -32.23007 35211 ft 489 kts 83°
2026-05-05 18:03 50.86230 -32.12334 35224 ft 485 kts 84°
2026-05-05 18:03 50.87007 -32.01789 35219 ft 481 kts 84°
2026-05-05 18:04 50.87772 -31.91270 35215 ft 481 kts 84°
2026-05-05 18:04 50.88528 -31.80746 35225 ft 481 kts 84°
2026-05-05 18:05 50.89275 -31.70216 35231 ft 481 kts 84°
2026-05-05 18:05 50.90010 -31.59706 35233 ft 478 kts 84°
2026-05-05 18:06 50.90731 -31.49270 35230 ft 476 kts 84°
2026-05-05 18:06 50.91443 -31.38827 35221 ft 477 kts 84°
2026-05-05 18:07 50.92147 -31.28349 35243 ft 480 kts 84°
2026-05-05 18:07 50.92844 -31.17840 35244 ft 479 kts 84°
2026-05-05 18:08 50.93530 -31.07347 35243 ft 476 kts 84°
2026-05-05 18:08 50.94203 -30.96928 35247 ft 475 kts 84°
2026-05-05 18:09 50.94866 -30.86565 35252 ft 476 kts 84°
2026-05-05 18:09 50.95524 -30.76133 35254 ft 475 kts 84°
2026-05-05 18:10 50.96173 -30.65696 35254 ft 475 kts 84°
2026-05-05 18:10 50.96811 -30.55295 35258 ft 471 kts 84°
2026-05-05 18:11 50.97436 -30.44972 35261 ft 470 kts 84°
2026-05-05 18:11 50.98052 -30.34631 35262 ft 471 kts 84°
2026-05-05 18:12 50.98660 -30.24290 35263 ft 470 kts 84°
2026-05-05 18:12 50.99261 -30.13937 35266 ft 473 kts 84°
2026-05-05 18:13 50.99855 -30.03534 35268 ft 473 kts 84°
2026-05-05 18:13 51.01001 -29.93291 35282 ft 472 kts 77°
2026-05-05 18:14 51.02446 -29.83120 35269 ft 472 kts 76°
2026-05-05 18:14 51.03903 -29.72949 35270 ft 472 kts 76°
2026-05-05 18:15 51.05353 -29.62775 35278 ft 472 kts 76°
2026-05-05 18:15 51.06794 -29.52585 35274 ft 472 kts 76°
2026-05-05 18:16 51.08227 -29.42394 35276 ft 472 kts 76°
2026-05-05 18:16 51.09652 -29.32190 35276 ft 473 kts 76°
2026-05-05 18:17 51.11067 -29.21981 35273 ft 473 kts 76°
2026-05-05 18:17 51.12475 -29.11763 35278 ft 473 kts 76°
2026-05-05 18:18 51.13873 -29.01536 35276 ft 473 kts 76°
2026-05-05 18:18 51.15253 -28.91377 35276 ft 473 kts 76°
2026-05-05 18:19 51.16633 -28.81138 35280 ft 473 kts 76°
2026-05-05 18:19 51.18004 -28.70904 35295 ft 472 kts 75°
2026-05-05 18:20 51.19364 -28.60673 35286 ft 471 kts 75°
2026-05-05 18:20 51.20713 -28.50453 35278 ft 471 kts 75°
2026-05-05 18:21 51.22054 -28.40219 35285 ft 471 kts 75°
2026-05-05 18:21 51.23391 -28.29945 35287 ft 474 kts 75°
2026-05-05 18:22 51.24721 -28.19651 35294 ft 473 kts 74°
2026-05-05 18:22 51.26038 -28.09369 35288 ft 473 kts 75°
2026-05-05 18:23 51.27349 -27.99070 35287 ft 473 kts 75°
2026-05-05 18:23 51.28650 -27.88770 35284 ft 473 kts 75°
2026-05-05 18:24 51.29942 -27.78459 35283 ft 473 kts 75°
2026-05-05 18:24 51.31215 -27.68231 35284 ft 471 kts 74°
2026-05-05 18:25 51.32483 -27.57963 35288 ft 471 kts 74°
2026-05-05 18:25 51.33742 -27.47685 35287 ft 471 kts 74°
2026-05-05 18:26 51.34992 -27.37399 35284 ft 471 kts 74°
2026-05-05 18:26 51.36234 -27.27107 35315 ft 471 kts 74°
2026-05-05 18:27 51.37255 -27.18580 35280 ft 468 kts 74°
2026-05-05 18:27 51.38473 -27.08343 35285 ft 469 kts 74°
2026-05-05 18:28 51.40283 -26.92969 35280 ft 469 kts 74°
2026-05-05 18:28 51.41479 -26.82706 35282 ft 469 kts 74°
2026-05-05 18:29 51.42665 -26.72455 35274 ft 467 kts 74°
2026-05-05 18:29 51.43840 -26.62214 35279 ft 468 kts 74°
2026-05-05 18:30 51.45007 -26.51960 35276 ft 467 kts 74°
2026-05-05 18:30 51.46164 -26.41707 35283 ft 468 kts 74°
2026-05-05 18:31 51.47317 -26.31404 35322 ft 470 kts 74°
2026-05-05 18:31 51.48460 -26.21108 35273 ft 468 kts 75°
2026-05-05 18:32 51.49593 -26.10816 35278 ft 469 kts 75°
2026-05-05 18:32 51.50717 -26.00517 35276 ft 469 kts 75°
2026-05-05 18:33 51.51832 -25.90214 35276 ft 469 kts 75°
2026-05-05 18:33 51.52938 -25.79904 35291 ft 468 kts 75°
2026-05-05 18:34 51.54031 -25.69623 35280 ft 467 kts 75°
2026-05-05 18:34 51.55109 -25.59402 35280 ft 467 kts 75°
2026-05-05 18:35 51.56184 -25.49107 35276 ft 467 kts 75°
2026-05-05 18:35 51.57252 -25.38802 35276 ft 467 kts 75°
2026-05-05 18:36 51.58311 -25.28484 35277 ft 467 kts 75°
2026-05-05 18:36 51.59361 -25.18170 35277 ft 467 kts 75°
2026-05-05 18:37 51.60400 -25.07855 35277 ft 467 kts 76°
2026-05-05 18:37 51.61433 -24.97521 35274 ft 468 kts 76°
2026-05-05 18:38 51.62455 -24.87188 35311 ft 467 kts 76°
2026-05-05 18:38 51.63465 -24.76887 35281 ft 465 kts 76°
2026-05-05 18:39 51.64465 -24.66592 35278 ft 466 kts 76°
2026-05-05 18:39 51.65457 -24.56286 35277 ft 466 kts 76°
2026-05-05 18:40 51.66439 -24.45975 35283 ft 466 kts 76°
2026-05-05 18:40 51.67413 -24.35655 35305 ft 467 kts 77°
2026-05-05 18:41 51.68381 -24.25298 35284 ft 468 kts 77°
2026-05-05 18:41 51.69335 -24.14997 35282 ft 468 kts 77°
2026-05-05 18:42 51.70286 -24.04618 35279 ft 468 kts 77°
2026-05-05 18:42 51.71228 -23.94233 35279 ft 468 kts 77°
2026-05-05 18:43 51.72160 -23.83847 35286 ft 468 kts 77°
2026-05-05 18:43 51.73083 -23.73465 35280 ft 468 kts 77°
2026-05-05 18:44 51.73997 -23.63074 35279 ft 468 kts 77°
2026-05-05 18:44 51.74902 -23.52677 35279 ft 468 kts 78°
2026-05-05 18:45 51.75797 -23.42280 35307 ft 468 kts 78°
2026-05-05 18:45 51.76683 -23.31884 35277 ft 467 kts 78°
2026-05-05 18:46 51.77557 -23.21507 35288 ft 467 kts 78°
2026-05-05 18:46 51.78424 -23.11120 35283 ft 467 kts 78°
2026-05-05 18:47 51.79280 -23.00730 35266 ft 467 kts 78°
2026-05-05 18:47 51.80128 -22.90332 35286 ft 467 kts 79°
2026-05-05 18:48 51.80967 -22.79927 35272 ft 467 kts 79°
2026-05-05 18:48 51.81797 -22.69521 35268 ft 467 kts 79°
2026-05-05 18:49 51.82617 -22.59112 35270 ft 467 kts 79°
2026-05-05 18:49 51.83424 -22.48763 35271 ft 467 kts 79°
2026-05-05 18:50 51.84226 -22.38342 35274 ft 467 kts 79°
2026-05-05 18:50 51.85020 -22.27902 35266 ft 469 kts 80°
2026-05-05 18:51 51.85808 -22.17426 35269 ft 469 kts 80°
2026-05-05 18:51 51.86586 -22.06950 35263 ft 469 kts 80°
2026-05-05 18:52 51.87354 -21.96468 35265 ft 469 kts 80°
2026-05-05 18:52 51.88114 -21.85982 35265 ft 469 kts 80°
2026-05-05 18:53 51.88864 -21.75487 35260 ft 469 kts 81°
2026-05-05 18:53 51.89605 -21.64997 35257 ft 469 kts 81°
2026-05-05 18:54 51.90337 -21.54492 35254 ft 469 kts 81°
2026-05-05 18:54 51.91060 -21.43985 35273 ft 470 kts 81°
2026-05-05 18:55 51.91774 -21.33464 35254 ft 470 kts 81°
2026-05-05 18:55 51.92479 -21.22936 35252 ft 470 kts 81°
2026-05-05 18:56 51.93174 -21.12403 35252 ft 470 kts 81°
2026-05-05 18:56 51.93861 -21.01864 35252 ft 470 kts 81°
2026-05-05 18:57 51.94540 -20.91330 35256 ft 471 kts 82°
2026-05-05 18:57 51.95214 -20.80758 35250 ft 472 kts 82°
2026-05-05 18:58 51.95878 -20.70186 35249 ft 471 kts 82°
2026-05-05 18:58 51.96533 -20.59609 35249 ft 471 kts 82°
2026-05-05 18:59 51.97179 -20.49030 35249 ft 471 kts 82°
2026-05-05 18:59 51.97816 -20.38453 35249 ft 471 kts 82°
2026-05-05 19:00 51.98445 -20.27861 35248 ft 472 kts 82°
2026-05-05 19:00 51.99064 -20.17265 35241 ft 472 kts 82°
2026-05-05 19:01 51.99676 -20.06657 35243 ft 472 kts 82°
2026-05-05 19:01 52.00040 -19.96091 35265 ft 473 kts 87°
2026-05-05 19:02 52.00205 -19.85389 35246 ft 474 kts 86°
2026-05-05 19:02 52.00409 -19.74687 35244 ft 475 kts 86°
2026-05-05 19:03 52.00610 -19.63981 35245 ft 474 kts 86°
2026-05-05 19:03 52.00801 -19.53276 35238 ft 475 kts 86°
2026-05-05 19:04 52.00983 -19.42573 35253 ft 475 kts 87°
2026-05-05 19:04 52.01155 -19.31851 35239 ft 475 kts 87°
2026-05-05 19:05 52.01318 -19.21124 35238 ft 476 kts 87°
2026-05-05 19:05 52.01471 -19.10392 35236 ft 475 kts 87°
2026-05-05 19:06 52.01614 -18.99654 35235 ft 476 kts 87°
2026-05-05 19:06 52.01747 -18.88920 35237 ft 476 kts 88°
2026-05-05 19:07 52.01851 -18.79996 35235 ft 476 kts 88°
2026-05-05 19:07 52.01985 -18.67432 35229 ft 476 kts 88°
2026-05-05 19:08 52.02089 -18.56681 35231 ft 476 kts 88°
2026-05-05 19:08 52.02184 -18.45936 35225 ft 476 kts 88°
2026-05-05 19:09 52.02269 -18.35185 35224 ft 476 kts 89°
2026-05-05 19:09 52.02344 -18.24425 35224 ft 476 kts 89°
2026-05-05 19:10 52.02408 -18.13743 35218 ft 476 kts 89°
2026-05-05 19:10 52.02464 -18.02985 35221 ft 476 kts 89°
2026-05-05 19:11 52.02510 -17.92228 35221 ft 476 kts 89°
2026-05-05 19:11 52.02540 -17.83221 35217 ft 476 kts 89°
2026-05-05 19:12 52.02568 -17.72540 35216 ft 476 kts 89°
2026-05-05 19:12 52.02586 -17.61789 35213 ft 476 kts 89°
2026-05-05 19:13 52.02594 -17.51037 35210 ft 476 kts 89°
2026-05-05 19:13 52.02592 -17.40287 35206 ft 476 kts 90°
2026-05-05 19:14 52.02581 -17.29527 35209 ft 477 kts 90°
2026-05-05 19:14 52.02559 -17.18755 35204 ft 477 kts 90°
2026-05-05 19:15 52.02528 -17.07987 35199 ft 477 kts 90°
2026-05-05 19:15 52.02487 -16.97227 35199 ft 477 kts 90°
2026-05-05 19:16 52.02437 -16.86466 35203 ft 476 kts 90°
2026-05-05 19:16 52.02376 -16.75696 35198 ft 478 kts 90°
2026-05-05 19:17 52.02306 -16.64913 35188 ft 478 kts 90°
2026-05-05 19:17 52.02225 -16.54137 35190 ft 478 kts 90°
2026-05-05 19:18 52.02135 -16.43354 35185 ft 478 kts 90°
2026-05-05 19:18 52.02036 -16.32568 35187 ft 477 kts 90°
2026-05-05 19:19 52.01926 -16.21802 35181 ft 477 kts 90°
2026-05-05 19:19 52.01806 -16.11034 35182 ft 477 kts 91°
2026-05-05 19:20 52.01677 -16.00269 35179 ft 477 kts 91°
2026-05-05 19:20 52.01538 -15.89502 35176 ft 477 kts 91°
2026-05-05 19:21 52.01389 -15.78737 35181 ft 476 kts 91°
2026-05-05 19:21 52.01230 -15.67995 35179 ft 476 kts 91°
2026-05-05 19:22 52.01063 -15.57319 35174 ft 476 kts 91°
2026-05-05 19:22 52.00886 -15.46574 35174 ft 476 kts 91°
2026-05-05 19:23 52.00702 -15.35831 35171 ft 476 kts 91°
2026-05-05 19:23 52.00509 -15.25082 35168 ft 475 kts 91°
2026-05-05 19:24 52.00307 -15.14365 35165 ft 475 kts 91°
2026-05-05 19:24 52.00096 -15.03656 35166 ft 475 kts 91°
2026-05-05 19:25 52.00091 -14.92938 35172 ft 475 kts 89°
2026-05-05 19:25 52.00120 -14.82220 35176 ft 475 kts 90°
2026-05-05 19:26 52.00137 -14.71491 35169 ft 475 kts 90°
2026-05-05 19:26 52.00144 -14.60768 35163 ft 475 kts 90°
2026-05-05 19:27 52.00141 -14.50037 35162 ft 475 kts 90°
2026-05-05 19:27 52.00128 -14.39317 35161 ft 475 kts 90°
2026-05-05 19:28 52.00105 -14.28588 35159 ft 475 kts 90°
2026-05-05 19:28 52.00073 -14.17859 35156 ft 475 kts 90°
2026-05-05 19:29 52.00032 -14.07137 35158 ft 475 kts 90°
2026-05-05 19:29 51.99675 -13.96449 35159 ft 474 kts 99°
2026-05-05 19:30 51.98727 -13.85843 35156 ft 475 kts 98°
2026-05-05 19:30 51.97764 -13.75235 35159 ft 475 kts 99°
2026-05-05 19:31 51.96792 -13.64641 35140 ft 475 kts 99°
2026-05-05 19:31 51.95810 -13.54065 35152 ft 474 kts 99°
2026-05-05 19:32 51.94820 -13.43498 35156 ft 474 kts 99°
2026-05-05 19:32 51.93820 -13.32934 35150 ft 474 kts 99°
2026-05-05 19:33 51.92818 -13.22451 35151 ft 474 kts 99°
2026-05-05 19:33 51.91799 -13.11899 35147 ft 474 kts 99°
2026-05-05 19:34 51.90771 -13.01348 35143 ft 474 kts 99°
2026-05-05 19:35 51.89212 -12.85539 35142 ft 474 kts 99°
2026-05-05 19:35 51.88161 -12.75008 35143 ft 474 kts 99°
2026-05-05 19:36 51.87101 -12.64482 35136 ft 474 kts 99°
2026-05-05 19:36 51.86031 -12.53962 35135 ft 474 kts 99°
2026-05-05 19:37 51.84954 -12.43463 35133 ft 473 kts 99°
2026-05-05 19:37 51.83867 -12.32976 35137 ft 473 kts 99°
2026-05-05 19:38 51.82772 -12.22490 35135 ft 473 kts 99°
2026-05-05 19:38 51.81668 -12.12023 35129 ft 472 kts 99°
2026-05-05 19:39 51.80556 -12.01567 35127 ft 472 kts 100°
2026-05-05 19:39 51.79439 -11.91164 35121 ft 472 kts 100°
2026-05-05 19:40 51.78302 -11.80659 35124 ft 472 kts 100°
2026-05-05 19:40 51.77162 -11.70220 35125 ft 472 kts 100°
2026-05-05 19:41 51.76013 -11.59791 35116 ft 472 kts 100°
2026-05-05 19:41 51.74855 -11.49367 35118 ft 472 kts 100°
2026-05-05 19:42 51.73689 -11.38954 35118 ft 472 kts 100°
2026-05-05 19:42 51.72521 -11.28620 35108 ft 470 kts 100°
2026-05-05 19:43 51.71341 -11.18250 35118 ft 470 kts 100°
2026-05-05 19:43 51.70151 -11.07892 35108 ft 470 kts 100°
2026-05-05 19:44 51.68952 -10.97538 35110 ft 470 kts 100°
2026-05-05 19:44 51.67745 -10.87199 35101 ft 470 kts 100°
2026-05-05 19:45 51.66528 -10.76853 35097 ft 470 kts 100°
2026-05-05 19:45 51.65302 -10.66514 35091 ft 470 kts 101°
2026-05-05 19:46 51.64067 -10.56189 35098 ft 469 kts 101°
2026-05-05 19:46 51.62823 -10.45865 35089 ft 469 kts 101°
2026-05-05 19:47 51.61571 -10.35556 35087 ft 470 kts 101°
2026-05-05 19:47 51.60310 -10.25249 35082 ft 470 kts 101°
2026-05-05 19:48 51.59041 -10.14959 35075 ft 468 kts 101°
2026-05-05 19:48 51.57766 -10.04704 35078 ft 468 kts 101°
2026-05-05 19:49 51.56482 -9.94446 35074 ft 468 kts 101°
2026-05-05 19:49 51.55189 -9.84197 35073 ft 468 kts 101°
2026-05-05 19:50 51.53887 -9.73948 35070 ft 468 kts 101°
2026-05-05 19:50 51.52577 -9.63712 35081 ft 468 kts 101°
2026-05-05 19:51 51.51259 -9.53498 35073 ft 467 kts 101°
2026-05-05 19:51 51.49933 -9.43295 35072 ft 467 kts 101°
2026-05-05 19:52 51.48599 -9.33096 35070 ft 467 kts 101°
2026-05-05 19:52 51.47255 -9.22905 35069 ft 467 kts 101°
2026-05-05 19:53 51.45903 -9.12717 35071 ft 467 kts 101°
2026-05-05 19:53 51.44554 -9.02626 35063 ft 465 kts 101°
2026-05-05 19:54 51.43189 -8.92490 35060 ft 465 kts 102°
2026-05-05 19:54 51.41815 -8.82358 35068 ft 465 kts 102°
2026-05-05 19:55 51.40433 -8.72233 35067 ft 465 kts 102°
2026-05-05 19:55 51.39268 -8.63757 35070 ft 465 kts 102°
2026-05-05 19:56 51.37868 -8.53627 35067 ft 466 kts 102°
2026-05-05 19:56 51.36458 -8.43500 35065 ft 466 kts 102°
2026-05-05 19:57 51.35040 -8.33384 35062 ft 466 kts 102°
2026-05-05 19:57 51.33613 -8.23270 35059 ft 466 kts 102°
2026-05-05 19:58 51.32179 -8.13161 35061 ft 466 kts 102°
2026-05-05 19:58 51.30739 -8.03064 35055 ft 466 kts 102°
2026-05-05 19:59 51.29290 -7.92971 35051 ft 465 kts 102°
2026-05-05 19:59 51.27836 -7.82905 35053 ft 465 kts 103°
2026-05-05 20:00 51.26375 -7.72847 35053 ft 465 kts 103°
2026-05-05 20:00 51.24904 -7.62790 35055 ft 465 kts 103°
2026-05-05 20:01 51.23689 -7.52667 35069 ft 464 kts 98°
2026-05-05 20:01 51.22722 -7.42485 35047 ft 464 kts 98°
2026-05-05 20:02 51.21721 -7.32377 35047 ft 464 kts 98°
2026-05-05 20:02 51.20702 -7.22209 35046 ft 464 kts 98°
2026-05-05 20:03 51.19675 -7.12048 35056 ft 464 kts 99°
2026-05-05 20:03 51.18638 -7.01885 35047 ft 464 kts 99°
2026-05-05 20:04 51.17593 -6.91727 35049 ft 464 kts 99°
2026-05-05 20:04 51.16538 -6.81572 35047 ft 464 kts 99°
2026-05-05 20:05 51.15476 -6.71425 35050 ft 464 kts 99°
2026-05-05 20:05 51.14405 -6.61285 35046 ft 464 kts 99°
2026-05-05 20:06 51.13327 -6.51176 35044 ft 463 kts 99°
2026-05-05 20:06 51.12241 -6.41070 35047 ft 463 kts 99°
2026-05-05 20:07 51.11146 -6.30964 35046 ft 463 kts 99°
2026-05-05 20:07 51.10042 -6.20868 35040 ft 463 kts 99°
2026-05-05 20:08 51.08930 -6.10777 35042 ft 463 kts 99°
2026-05-05 20:08 51.07807 -6.00674 35044 ft 465 kts 99°
2026-05-05 20:09 51.06676 -5.90571 35034 ft 464 kts 99°
2026-05-05 20:09 51.05534 -5.80472 35035 ft 464 kts 99°
2026-05-05 20:10 51.04385 -5.70378 35036 ft 465 kts 99°
2026-05-05 20:10 51.03228 -5.60293 35033 ft 464 kts 99°
2026-05-05 20:11 51.02068 -5.50275 35029 ft 463 kts 99°
2026-05-05 20:11 51.00894 -5.40208 35027 ft 464 kts 99°
2026-05-05 20:12 50.99712 -5.30151 35022 ft 465 kts 99°
2026-05-05 20:12 50.98518 -5.20076 35015 ft 463 kts 99°
2026-05-05 20:13 50.97317 -5.10010 35021 ft 465 kts 100°
2026-05-05 20:13 50.96108 -4.99965 35014 ft 464 kts 100°
2026-05-05 20:14 50.94889 -4.89916 35016 ft 463 kts 99°
2026-05-05 20:14 50.93661 -4.79862 35019 ft 465 kts 99°
2026-05-05 20:15 50.92427 -4.69826 35015 ft 464 kts 100°
2026-05-05 20:15 50.91190 -4.59851 35013 ft 459 kts 99°
2026-05-05 20:16 50.89949 -4.49915 35013 ft 460 kts 100°
2026-05-05 20:16 50.88700 -4.39996 35010 ft 460 kts 100°
2026-05-05 20:17 50.87442 -4.30068 35002 ft 459 kts 100°
2026-05-05 20:17 50.86177 -4.20146 35012 ft 460 kts 100°
2026-05-05 20:18 50.84908 -4.10251 35002 ft 459 kts 100°
2026-05-05 20:18 50.83633 -4.00370 34998 ft 458 kts 101°
2026-05-05 20:19 50.82326 -3.90488 34991 ft 459 kts 104°
2026-05-05 20:19 50.80368 -3.80874 34991 ft 461 kts 107°
2026-05-05 20:20 50.78357 -3.71262 34999 ft 459 kts 109°
2026-05-05 20:20 50.76356 -3.61752 34996 ft 459 kts 108°
2026-05-05 20:21 50.74333 -3.52191 34990 ft 458 kts 109°
2026-05-05 20:21 50.72303 -3.42633 34994 ft 459 kts 109°
2026-05-05 20:22 50.70266 -3.33090 34995 ft 459 kts 109°
2026-05-05 20:22 50.68238 -3.23638 34817 ft 445 kts 109°
2026-05-05 20:22 50.67249 -3.19042 34384 ft 441 kts 109°
2026-05-05 20:23 50.66264 -3.14476 33766 ft 441 kts 110°
2026-05-05 20:23 50.65274 -3.09897 33072 ft 440 kts 110°
2026-05-05 20:23 50.64289 -3.05349 32509 ft 437 kts 110°
2026-05-05 20:23 50.63432 -3.00779 32029 ft 434 kts 100°
2026-05-05 20:24 50.63354 -2.96047 31503 ft 433 kts 83°
2026-05-05 20:24 50.63840 -2.91386 31058 ft 429 kts 82°
2026-05-05 20:24 50.64320 -2.86770 30585 ft 426 kts 81°
2026-05-05 20:24 50.64815 -2.82173 30078 ft 425 kts 81°
2026-05-05 20:25 50.65319 -2.77595 29509 ft 423 kts 81°
2026-05-05 20:25 50.65822 -2.73050 29009 ft 420 kts 81°
2026-05-05 20:25 50.66322 -2.68542 28552 ft 416 kts 81°
2026-05-05 20:25 50.66816 -2.64065 28081 ft 413 kts 81°
2026-05-05 20:26 50.67306 -2.59618 27610 ft 410 kts 81°
2026-05-05 20:26 50.67789 -2.55210 27157 ft 407 kts 80°
2026-05-05 20:26 50.68151 -2.50818 26810 ft 401 kts 91°
2026-05-05 20:26 50.67972 -2.46479 26544 ft 395 kts 94°
2026-05-05 20:27 50.67801 -2.42149 26305 ft 396 kts 94°
2026-05-05 20:27 50.67625 -2.37818 26041 ft 395 kts 94°
2026-05-05 20:27 50.67445 -2.33498 25771 ft 394 kts 94°
2026-05-05 20:27 50.67262 -2.29203 25518 ft 392 kts 94°
2026-05-05 20:28 50.67078 -2.24927 25255 ft 390 kts 94°
2026-05-05 20:28 50.66893 -2.20671 24993 ft 389 kts 94°
2026-05-05 20:28 50.66707 -2.16424 24735 ft 388 kts 94°
2026-05-05 20:28 50.66520 -2.12194 24478 ft 387 kts 94°
2026-05-05 20:29 50.66332 -2.07975 24217 ft 386 kts 94°
2026-05-05 20:29 50.66146 -2.03766 23957 ft 384 kts 93°
2026-05-05 20:29 50.66173 -1.99563 23672 ft 383 kts 88°
2026-05-05 20:29 50.66246 -1.95377 23407 ft 382 kts 88°
2026-05-05 20:30 50.66303 -1.91202 23122 ft 380 kts 88°
2026-05-05 20:30 50.66348 -1.87051 22874 ft 378 kts 88°
2026-05-05 20:30 50.66388 -1.82989 22628 ft 374 kts 88°
2026-05-05 20:30 50.66424 -1.78910 22380 ft 370 kts 88°
2026-05-05 20:31 50.66459 -1.74864 22137 ft 368 kts 88°
2026-05-05 20:31 50.66491 -1.70837 21890 ft 366 kts 88°
2026-05-05 20:31 50.66522 -1.66837 21646 ft 364 kts 89°
2026-05-05 20:31 50.66551 -1.62854 21401 ft 363 kts 89°
2026-05-05 20:32 50.66580 -1.58886 21152 ft 361 kts 89°
2026-05-05 20:32 50.66595 -1.54954 20942 ft 358 kts 90°
2026-05-05 20:32 50.66547 -1.51031 20536 ft 357 kts 90°
2026-05-05 20:32 50.66499 -1.47132 20178 ft 355 kts 90°
2026-05-05 20:33 50.66454 -1.43256 19819 ft 352 kts 90°
2026-05-05 20:33 50.66410 -1.39413 19461 ft 350 kts 90°
2026-05-05 20:33 50.66380 -1.35587 19083 ft 348 kts 86°
2026-05-05 20:33 50.66892 -1.31892 18678 ft 345 kts 68°
2026-05-05 20:34 50.67764 -1.28388 18341 ft 342 kts 68°
2026-05-05 20:34 50.68625 -1.24911 17964 ft 340 kts 68°
2026-05-05 20:34 50.69490 -1.21467 17596 ft 337 kts 68°
2026-05-05 20:34 50.70355 -1.18052 17241 ft 333 kts 68°
2026-05-05 20:35 50.71213 -1.14674 16897 ft 330 kts 67°
2026-05-05 20:35 50.72063 -1.11329 16563 ft 327 kts 67°
2026-05-05 20:35 50.72907 -1.08011 16226 ft 324 kts 67°
2026-05-05 20:35 50.73742 -1.04722 15894 ft 322 kts 67°
2026-05-05 20:36 50.74569 -1.01456 15559 ft 320 kts 67°
2026-05-05 20:36 50.75394 -0.98200 15229 ft 318 kts 67°
2026-05-05 20:36 50.75937 -0.96051 15011 ft 317 kts 67°
2026-05-05 20:36 50.76752 -0.92822 14689 ft 316 kts 67°
2026-05-05 20:37 50.77562 -0.89610 14367 ft 314 kts 67°
2026-05-05 20:37 50.78367 -0.86416 14041 ft 312 kts 67°
2026-05-05 20:37 50.79164 -0.83245 13718 ft 310 kts 67°
2026-05-05 20:37 50.79956 -0.80091 13351 ft 308 kts 67°
2026-05-05 20:38 50.80743 -0.76956 13023 ft 305 kts 67°
2026-05-05 20:38 50.81352 -0.73781 12784 ft 300 kts 79°
2026-05-05 20:38 50.81708 -0.70560 12573 ft 297 kts 78°
2026-05-05 20:38 50.82074 -0.67338 12379 ft 298 kts 78°
2026-05-05 20:39 50.82445 -0.64115 12175 ft 297 kts 78°
2026-05-05 20:39 50.82816 -0.60903 11972 ft 297 kts 78°
2026-05-05 20:39 50.83186 -0.57703 11765 ft 296 kts 78°
2026-05-05 20:39 50.83556 -0.54504 11555 ft 295 kts 78°
2026-05-05 20:40 50.83923 -0.51323 11368 ft 294 kts 78°
2026-05-05 20:40 50.84290 -0.48136 11164 ft 293 kts 78°
2026-05-05 20:40 50.84654 -0.44966 10959 ft 293 kts 78°
2026-05-05 20:40 50.85017 -0.41802 10756 ft 292 kts 78°
2026-05-05 20:41 50.85377 -0.38652 10558 ft 291 kts 78°
2026-05-05 20:41 50.85737 -0.35501 10358 ft 290 kts 78°
2026-05-05 20:41 50.86092 -0.32379 10157 ft 286 kts 78°
2026-05-05 20:41 50.86439 -0.29320 9959 ft 280 kts 78°
2026-05-05 20:42 50.86778 -0.26318 9758 ft 275 kts 78°
2026-05-05 20:42 50.87116 -0.23331 9565 ft 276 kts 78°
2026-05-05 20:42 50.87451 -0.20353 9366 ft 274 kts 78°
2026-05-05 20:42 50.87780 -0.17428 9171 ft 268 kts 77°
2026-05-05 20:43 50.88100 -0.14556 8988 ft 262 kts 77°
2026-05-05 20:43 50.88415 -0.11748 8803 ft 255 kts 77°
2026-05-05 20:43 50.88741 -0.09027 8624 ft 248 kts 71°
2026-05-05 20:43 50.89569 -0.06743 8397 ft 237 kts 41°
2026-05-05 20:44 50.90970 -0.05459 8229 ft 235 kts 15°
2026-05-05 20:44 50.92563 -0.04807 8117 ft 237 kts 12°
2026-05-05 20:44 50.94173 -0.04733 7960 ft 235 kts 346°
2026-05-05 20:44 50.95615 -0.05905 7800 ft 236 kts 319°
2026-05-05 20:45 50.97068 -0.10556 7520 ft 242 kts 288°
2026-05-05 20:45 50.97508 -0.13140 7349 ft 242 kts 287°
2026-05-05 20:45 50.97929 -0.15707 7147 ft 238 kts 287°
2026-05-05 20:46 50.98333 -0.18224 7001 ft 231 kts 287°
2026-05-05 20:46 50.98731 -0.20711 6636 ft 238 kts 287°
2026-05-05 20:46 50.99150 -0.23366 5878 ft 258 kts 286°
2026-05-05 20:46 50.99597 -0.26219 5102 ft 272 kts 286°
2026-05-05 20:47 51.00055 -0.29166 4361 ft 278 kts 286°
2026-05-05 20:47 51.00520 -0.32167 3634 ft 282 kts 285°
2026-05-05 20:47 51.00996 -0.35189 3032 ft 280 kts 286°
2026-05-05 20:47 51.01212 -0.38148 3047 ft 265 kts 266°
2026-05-05 20:48 51.00952 -0.40975 3038 ft 251 kts 261°
2026-05-05 20:48 51.00651 -0.43637 3016 ft 239 kts 261°
2026-05-05 20:48 51.00358 -0.46187 3096 ft 234 kts 261°
2026-05-05 20:48 51.00065 -0.48722 3035 ft 233 kts 261°
2026-05-05 20:49 50.99775 -0.51255 2998 ft 233 kts 261°
2026-05-05 20:49 50.99482 -0.53787 2996 ft 233 kts 261°
2026-05-05 20:49 50.99267 -0.56056 2986 ft 233 kts 271°
2026-05-05 20:49 50.99452 -0.57766 2960 ft 229 kts 293°
2026-05-05 20:50 51.00391 -0.59739 2986 ft 225 kts 326°
2026-05-05 20:50 51.01821 -0.60678 3009 ft 224 kts 348°
2026-05-05 20:50 51.03350 -0.61146 3025 ft 224 kts 352°
2026-05-05 20:50 51.04882 -0.61006 2973 ft 222 kts 20°
2026-05-05 20:51 51.06116 -0.59601 2995 ft 222 kts 50°
2026-05-05 20:51 51.07022 -0.57607 3021 ft 223 kts 55°
2026-05-05 20:51 51.07855 -0.55621 3012 ft 208 kts 56°
2026-05-05 20:51 51.08631 -0.53762 3022 ft 202 kts 56°
2026-05-05 20:52 51.09410 -0.51900 3031 ft 202 kts 56°
2026-05-05 20:52 51.10182 -0.50029 3013 ft 202 kts 58°
2026-05-05 20:52 51.10785 -0.48013 3010 ft 203 kts 69°
2026-05-05 20:52 51.11158 -0.45864 3002 ft 199 kts 76°
2026-05-05 20:53 51.11428 -0.43810 3010 ft 184 kts 77°
2026-05-05 20:53 51.11693 -0.41835 2841 ft 177 kts 76°
2026-05-05 20:53 51.11943 -0.39996 2650 ft 163 kts 77°
2026-05-05 20:53 51.12179 -0.38269 2493 ft 161 kts 77°
2026-05-05 20:54 51.12416 -0.36536 2265 ft 160 kts 77°
2026-05-05 20:54 51.12652 -0.34818 2042 ft 158 kts 78°
2026-05-05 20:54 51.12886 -0.33120 1833 ft 157 kts 78°
2026-05-05 20:54 51.13117 -0.31434 1623 ft 155 kts 78°
2026-05-05 20:55 51.13347 -0.29757 1413 ft 154 kts 78°
2026-05-05 20:55 51.13568 -0.28140 1182 ft 146 kts 77°
2026-05-05 20:55 51.13788 -0.26570 984 ft 145 kts 77°
2026-05-05 20:55 51.14007 -0.25008 787 ft 144 kts 77°
2026-05-05 20:56 51.14220 -0.23454 592 ft 144 kts 77°
2026-05-05 20:56 51.14420 -0.21902 395 ft 143 kts 78°
2026-05-05 20:56 51.14630 -0.20374 229 ft 138 kts 77°
2026-05-05 20:56 51.14815 -0.19023 215 ft 104 kts 78°
2026-05-05 20:57 51.14924 -0.18238 207 ft 44 kts 77°
2026-05-05 20:57 51.15006 -0.17897 212 ft 20 kts 54°
2026-05-05 20:57 51.15070 -0.17775 207 ft 5 kts 41°
2026-05-05 20:57 51.15081 -0.17763 210 ft 1 kts 31°
2026-05-05 20:58 51.15100 -0.17755 209 ft 7 kts
2026-05-05 20:58 51.15193 -0.17772 218 ft 16 kts 353°
2026-05-05 20:58 51.15263 -0.17708 206 ft 14 kts 72°
2026-05-05 20:58 51.15285 -0.17553 206 ft 15 kts 78°
2026-05-05 20:59 51.15304 -0.17409 216 ft 9 kts 68°
2026-05-05 20:59 51.15362 -0.17373 211 ft 10 kts 359°
2026-05-05 20:59 51.15440 -0.17399 206 ft 13 kts 346°
2026-05-05 20:59 51.15532 -0.17431 215 ft 12 kts 347°
2026-05-05 21:00 51.15601 -0.17457 211 ft 11 kts 347°
2026-05-05 21:00 51.15662 -0.17478 209 ft 8 kts 348°
2026-05-05 21:00 51.15699 -0.17490 210 ft 0 kts 347°
2026-05-05 21:00 51.15710 -0.17494 209 ft 3 kts 347°
2026-05-05 21:01 51.15738 -0.17513 209 ft 5 kts 324°
2026-05-05 21:01 51.15751 -0.17576 210 ft 7 kts 266°
2026-05-05 21:01 51.15740 -0.17666 209 ft 8 kts 257°
2026-05-05 21:01 51.15762 -0.17714 209 ft 6 kts 342°
2026-05-05 21:02 51.15804 -0.17727 216 ft 5 kts 348°
2026-05-05 21:02 51.15821 -0.17733 211 ft 0 kts 347°